ONEWEB-0197, 48236

Orbit data source: Space-Track

ONEWEB-0197, 48236 is a payload satellite owned by One Web (NAA) (UK) in LEO that was launched on Sun, 25 Apr 2021 UTC via a SOYUZ-2-1B launch vehicle from the Vostochny Cosmodrome (VOSTO). Payload-class satellites include a variety of spacecraft equipped with specific instruments for various scientific and technological missions. These include communications satellites like Starlink; space stations such as the ISS; scientific satellites like the Hubble; Earth observation satellites from companies like Planet Labs, Umbra, and HawkEye 360; GPS; miniature CubeSats for education and research; and military/defense satellites.

Loading next visibility...
Identifier
48236, 2021-031AC
Orbit
LEO
Country
Flag of UKUK
Related business
Manufacturer
One Web
Mission
Operational Commercial Communications
Bus & Motor
ARROW, Unknown motor
Mass
148 kg wet, ~140 kg dry
Launch date (UTC)
2021-04-25 (5 years ago)
Launch vehicle
SOYUZ-2-1B
Launch site
Vostochny Cosmodrome (VOSTO)
Object type
Payload
Rocket body
Debris
Shape & HBR
Trap Box + 2 Pan, 6.7 m
Radar Cross Section
3.464 m², Large (>1 m²)

Expand to show TLE details & history
Last TLE update: 20 hours ago

TLE from 20 hours ago
0 ONEWEB-0197
1 48236U 21031AC  26094.62050999 -.00000321  00000-0 -89912-3 0  9991
2 48236  87.8934 304.3737 0001390  91.5493 268.5795 13.14502631238523
Epoch: 2026-04-04T14:53Z
TLE epoch observation values (Epoch: 2026-04-04T14:53:32.063Z)
Latitude
-0.0001°
Longitude
-111.94757°
Altitude
1,208.711 km
Speed
7.25 km/s
True Right ascension
20h 17m 29s
True Declination
0° 00' 00"
Sunlit
Object was in daylight at epoch
Visualization orbit readout
Latitude
Unknown
Longitude
Unknown
Altitude
Unknown
Speed
Unknown
Apparent Right ascension
Unknown
Apparent Declination
Unknown
Sunlit
N/A
Visualization observer readout
Local Sidereal Time
16:35:05
Azimuth
Unknown
Elevation
Unknown
Doppler factor
Unknown
Orbital elements
Apogee altitude
1,203.958 km
Perigee altitude
1,201.851 km
Semi-major axis
7,581.042 km
Eccentricity
0.00014
Inclination
87.8934°
RAAN
304.3737°
Arg. of periapsis
91.5493°
True anomaly
268.56358°
Mean anomaly
268.5795°
Eccentric anomaly
268.57154°
Mean motion
3.28814 °/min
Orbital period
109.48 mins
BSTAR
-0.00089912
Loading maneuver chart data...
Computing Atmospheric mass density...
Loading historical data...
Loading historical data...
Loading historical data...
Loading historical data...
Loading historical data...
Loading historical data...
Loading historical data...

Documentation

Showing up to 5 results
|